TimeMST,TemperatureF,Dew PointF,Humidity,Sea Level PressureIn,VisibilityMPH,Wind Direction,Wind SpeedMPH,Gust SpeedMPH,PrecipitationIn,Events,Conditions,WindDirDegrees,DateUTC
12:54 AM,30.0,16.0,56,29.62,10.0,WSW,13.8,-,N/A,,Clear,250,2012-12-27 07:54:00
1:54 AM,30.0,17.1,59,29.60,10.0,WSW,16.1,-,N/A,,Clear,240,2012-12-27 08:54:00
2:54 AM,28.9,18.0,64,29.59,10.0,WSW,16.1,-,N/A,,Clear,250,2012-12-27 09:54:00
3:54 AM,28.9,18.0,64,29.58,10.0,WSW,18.4,-,N/A,,Clear,250,2012-12-27 10:54:00
4:54 AM,28.9,16.0,58,29.60,10.0,WSW,18.4,-,N/A,,Clear,250,2012-12-27 11:54:00
5:54 AM,26.1,12.0,55,29.62,10.0,WNW,9.2,-,N/A,,Clear,300,2012-12-27 12:54:00
6:54 AM,23.0,10.9,60,29.68,10.0,NNW,8.1,-,N/A,,Clear,330,2012-12-27 13:54:00
7:54 AM,28.9,10.9,47,29.68,10.0,WNW,11.5,-,N/A,,Clear,290,2012-12-27 14:54:00
8:54 AM,32.0,14.0,48,29.69,10.0,West,8.1,-,N/A,,Clear,260,2012-12-27 15:54:00
9:54 AM,36.0,12.9,39,29.70,10.0,WSW,11.5,-,N/A,,Clear,250,2012-12-27 16:54:00
10:54 AM,39.0,10.0,30,29.64,10.0,NW,9.2,-,N/A,,Clear,320,2012-12-27 17:54:00
11:54 AM,36.0,16.0,44,29.64,10.0,East,9.2,-,N/A,,Clear,100,2012-12-27 18:54:00
12:54 PM,30.9,19.9,64,29.65,10.0,ENE,11.5,-,N/A,,Clear,70,2012-12-27 19:54:00
1:54 PM,34.0,18.0,52,29.65,10.0,ENE,10.4,-,N/A,,Clear,60,2012-12-27 20:54:00
2:54 PM,33.1,18.0,54,29.66,10.0,ENE,9.2,-,N/A,,Partly Cloudy,60,2012-12-27 21:54:00
3:54 PM,32.0,19.0,59,29.68,10.0,ENE,10.4,-,N/A,,Partly Cloudy,70,2012-12-27 22:54:00
4:54 PM,28.0,19.0,69,29.73,10.0,NE,11.5,-,N/A,,Clear,50,2012-12-27 23:54:00
5:54 PM,25.0,17.1,72,29.80,10.0,NNE,6.9,-,N/A,,Clear,30,2012-12-28 00:54:00
6:54 PM,21.9,16.0,78,29.86,10.0,NNE,8.1,-,N/A,,Overcast,20,2012-12-28 01:54:00
7:54 PM,21.0,15.1,78,29.87,10.0,NE,9.2,-,N/A,,Mostly Cloudy,50,2012-12-28 02:54:00
8:20 PM,19.4,15.8,86,29.81,9.0,NE,10.4,-,N/A,,Overcast,40,2012-12-28 03:20:00
8:33 PM,19.4,17.6,93,29.82,8.0,NE,10.4,-,N/A,,Overcast,40,2012-12-28 03:33:00
8:54 PM,21.0,17.1,85,29.88,9.0,NNE,5.8,-,N/A,,Overcast,30,2012-12-28 03:54:00
9:08 PM,21.2,17.6,86,29.83,9.0,NE,6.9,-,N/A,,Overcast,40,2012-12-28 04:08:00
9:54 PM,19.9,16.0,85,29.90,9.0,NNE,5.8,-,N/A,,Overcast,30,2012-12-28 04:54:00
10:17 PM,19.4,15.8,86,29.85,9.0,NE,3.5,-,N/A,,Overcast,50,2012-12-28 05:17:00
10:54 PM,19.0,12.0,74,29.90,10.0,ENE,8.1,-,N/A,,Overcast,60,2012-12-28 05:54:00
11:54 PM,19.0,10.9,71,29.91,10.0,East,8.1,-,N/A,,Overcast,80,2012-12-28 06:54:00